{"data":{"norad_id":60148,"intl_designator":"2024-120P","name":"STARLINK-32021","alt_names":[],"object_type":"PAYLOAD","status":"ACTIVE","operator":null,"country":"US","launch_date":"2024-06-27","launch_site_code":"AFETR","launch_vehicle":null,"mission":null,"orbit_class":"UNKNOWN","rcs_meters":null,"size_class":null,"mass_kg":null,"dimensions":null,"purposes":["comms"],"wikipedia_slug":null,"has_3d_model":false,"image_url":null,"decayed_at":null,"tle_current":{"epoch":"2026-05-25T04:49:58.122624Z","epoch_age_seconds":53595,"freshness":"FRESH","line1":"1 60148U 24120P   26145.20136716  .00000391  00000+0  24366-4 0  9999","line2":"2 60148  53.1625 314.3570 0001309  90.2591 269.8561 15.31696616108319","mean_motion":15.31696616,"eccentricity":0.0001309,"inclination_deg":53.1625,"raan_deg":314.357,"arg_perigee_deg":90.2591,"mean_anomaly_deg":269.8561,"bstar":2.4366e-5,"rev_number":10831,"period_min":94.013395665816,"perigee_km":469.853563453,"apogee_km":471.64660209127,"semimajor_km":6848.8870827721,"source":"CELESTRAK","updated_at":"2026-05-25T13:38:19.190763Z"}}}